Weather History for Mount Ida, AR

Change the Weather History Date:

Tuesday, December 4, 2012

  Actual Average (KHOT) Record (KHOT)
Temperature  
Mean Temperature 56 °F -  
Max Temperature 66 °F 57 °F 75 °F (2001)
Min Temperature 44 °F 34 °F 21 °F (2000)
Degree Days  
Heating Degree Days 9    
Growing Degree Days 6 (Base 50)    
Moisture  
Dew Point 60 °F    
Average Humidity 91    
Maximum Humidity 100    
Minimum Humidity 83    
Precipitation  
Precipitation 0.44 in - - ()
Sea Level Pressure  
Sea Level Pressure 30.08 in    
Wind  
Wind Speed 3 mph (NW)    
Max Wind Speed 9 mph    
Max Gust Speed 16 mph    
Visibility 8 miles    
Events Rain    
Averages and records for this station are not official NWS values.
T = Trace of Precipitation, MM = Missing Value Source: NWS Daily Summary

Daily Weather History Graph

Daily Weather History Graph

Search for Another Location

Airport:

Trip Planner

Search our weather history database for the weather conditions in past years. The results will help you decide how hot, cold, wet, or windy it might be!

Date:

Astronomy

Dec. 04, 2012 Rise Set
Actual Time 7:05 AM CST 5:03 PM CST
Civil Twilight 6:38 AM CST 5:31 PM CST
Nautical Twilight 6:06 AM CST 6:02 PM CST
Astronomical Twilight 5:36 AM CST 6:32 PM CST
Moon 10:42 PM CST (12/4) 11:08 AM CST (12/4)
Length of Visible Light 10h 53m
Length of Day
9h 57m
Waning Gibbous, 69% of the Moon is Illuminated
Dec 4
Waning Gibbous
Dec 6
Last Quarter
Dec 13
New
Dec 19
First Quarter
Dec 28
Full

Hourly Weather History & Observations

Time (CST) Temp. Dew Point Humidity Pressure Visibility Wind Dir Wind Speed Gust Speed Precip Events Conditions
12:53 AM 66.9 °F 64.0 °F 90% 29.99 in 10.0 mi Calm Calm - 0.00 in Rain Light Rain
1:28 AM 66.2 °F 64.4 °F 94% 30.01 in 7.0 mi SSW 8.1 mph - 0.02 in Rain Light Rain
1:43 AM 66.2 °F 64.4 °F 94% 30.01 in 10.0 mi Variable 5.8 mph - 0.03 in   Overcast
1:53 AM 66.9 °F 64.0 °F 90% 29.99 in 10.0 mi Variable 5.8 mph - 0.03 in   Overcast
2:42 AM 66.2 °F 64.4 °F 94% 30.00 in 10.0 mi Variable 6.9 mph - 0.04 in Rain Light Rain
2:53 AM 66.9 °F 64.0 °F 90% 29.99 in 10.0 mi Variable 3.5 mph - 0.04 in   Overcast
3:07 AM 66.2 °F 64.4 °F 94% 30.01 in 10.0 mi Variable 3.5 mph - 0.00 in   Overcast
3:16 AM 66.2 °F 64.4 °F 94% 30.01 in 10.0 mi Variable 5.8 mph - 0.00 in   Overcast
3:33 AM 66.2 °F 62.6 °F 88% 30.00 in 10.0 mi Variable 5.8 mph - 0.00 in   Overcast
3:53 AM 66.9 °F 63.0 °F 87% 29.98 in 9.0 mi Variable 5.8 mph - 0.00 in Rain Light Rain
4:20 AM 66.2 °F 64.4 °F 94% 30.00 in 8.0 mi Variable 4.6 mph - 0.00 in Rain Light Rain
4:41 AM 66.2 °F 64.4 °F 94% 30.00 in 10.0 mi Variable 5.8 mph - 0.00 in   Mostly Cloudy
4:53 AM 66.9 °F 63.0 °F 87% 29.98 in 10.0 mi Variable 4.6 mph - 0.00 in   Scattered Clouds
5:11 AM 66.2 °F 62.6 °F 88% 30.00 in 10.0 mi Variable 3.5 mph - N/A   Mostly Cloudy
5:53 AM 66.9 °F 63.0 °F 87% 29.99 in 8.0 mi Variable 4.6 mph - 0.00 in Rain Light Rain
6:53 AM 66.0 °F 63.0 °F 90% 30.00 in 7.0 mi Calm Calm - 0.02 in Rain Light Rain
7:53 AM 66.0 °F 63.0 °F 90% 30.02 in 7.0 mi Calm Calm - 0.01 in Rain Light Rain
8:07 AM 66.2 °F 64.4 °F 94% 30.05 in 6.0 mi Calm Calm - 0.00 in Rain Light Rain
8:53 AM 66.9 °F 64.0 °F 90% 30.04 in 10.0 mi Calm Calm - 0.00 in   Overcast
9:42 AM 66.2 °F 64.4 °F 94% 30.08 in 2.0 mi Calm Calm - 0.04 in Rain Light Rain
9:53 AM 66.9 °F 66.0 °F 97% 30.05 in 2.5 mi Variable 4.6 mph - 0.06 in Rain Light Rain
10:10 AM 66.2 °F 64.4 °F 94% 30.10 in 1.0 mi Variable 4.6 mph - 0.07 in Rain Heavy Rain
10:17 AM 66.2 °F 64.4 °F 94% 30.09 in 0.8 mi West 9.2 mph 16.1 mph 0.12 in Rain Heavy Rain
10:26 AM 64.4 °F 62.6 °F 94% 30.10 in 1.0 mi NNW 8.1 mph - 0.24 in Rain Light Rain
10:30 AM 64.4 °F 62.6 °F 94% 30.10 in 3.0 mi NNW 6.9 mph - 0.24 in Rain Light Rain
10:49 AM 64.4 °F 62.6 °F 94% 30.11 in 2.0 mi Calm Calm - 0.27 in Rain Rain
10:53 AM 63.0 °F 63.0 °F 100% 30.09 in 2.5 mi Calm Calm - 0.28 in Rain Light Rain
10:58 AM 64.4 °F 62.6 °F 94% 30.10 in 6.0 mi Calm Calm - 0.00 in Rain Light Rain
11:12 AM 62.6 °F 62.6 °F 100% 30.11 in 8.0 mi Calm Calm - 0.00 in   Overcast
11:23 AM 62.6 °F 62.6 °F 100% 30.10 in 9.0 mi Calm Calm - 0.00 in   Overcast
11:38 AM 64.4 °F 62.6 °F 94% 30.09 in 10.0 mi Calm Calm - 0.00 in   Overcast
11:53 AM 63.0 °F 62.1 °F 97% 30.07 in 10.0 mi NNW 3.5 mph - 0.00 in   Overcast
12:02 PM 62.6 °F 60.8 °F 94% 30.08 in 8.0 mi NNW 9.2 mph - N/A   Overcast
12:53 PM 61.0 °F 57.9 °F 90% 30.09 in 6.0 mi Variable 5.8 mph - N/A   Overcast
1:18 PM 60.8 °F 57.2 °F 88% 30.10 in 7.0 mi Variable 3.5 mph - N/A   Overcast
1:53 PM 59.0 °F 55.9 °F 90% 30.09 in 10.0 mi NNW 8.1 mph 16.1 mph N/A   Overcast
2:53 PM 57.9 °F 55.0 °F 90% 30.11 in 10.0 mi NNW 5.8 mph - N/A   Overcast
3:53 PM 59.0 °F 55.0 °F 87% 30.12 in 10.0 mi Variable 4.6 mph - N/A   Overcast
4:42 PM 59.0 °F 55.4 °F 88% 30.15 in 10.0 mi Calm Calm - N/A   Overcast
4:53 PM 59.0 °F 55.0 °F 87% 30.15 in 10.0 mi Calm Calm - N/A   Overcast
5:53 PM 59.0 °F 54.0 °F 83% 30.16 in 10.0 mi Calm Calm - N/A   Overcast
6:46 PM 57.2 °F 53.6 °F 88% 30.19 in 10.0 mi Calm Calm - N/A   Mostly Cloudy
6:53 PM 57.0 °F 53.1 °F 87% 30.18 in 10.0 mi Calm Calm - N/A   Scattered Clouds
7:53 PM 55.0 °F 50.0 °F 83% 30.21 in 10.0 mi Calm Calm - N/A   Clear
8:53 PM 51.1 °F 48.9 °F 92% 30.23 in 10.0 mi Calm Calm - N/A   Clear
9:53 PM 50.0 °F 45.0 °F 83% 30.23 in 10.0 mi Calm Calm - N/A   Clear
10:53 PM 46.9 °F 44.1 °F 90% 30.25 in 10.0 mi Calm Calm - N/A   Clear
11:53 PM 44.1 °F 43.0 °F 96% 30.25 in 10.0 mi Calm Calm - N/A   Clear